| time (UTC) | temp F | wind direction | speed MPH | gust MPH | rain 1hr in | rain 24hr in | rain mn in | humidity % | barometer mb |
| 20260506185057 | 51 | 360 | 4.0 | 10.0 | 0.01 | 0.96 | 0.96 | 94 | 1006.8 |
| 20260506184622 | 51 | 360 | 5.0 | 11.0 | 0.01 | 0.96 | 0.96 | 94 | 1006.9 |
| 20260506184058 | 51 | 360 | 6.0 | 11.0 | 0.01 | 0.96 | 0.96 | 94 | 1006.8 |
| 20260506183601 | 52 | 360 | 5.0 | 11.0 | 0.01 | 0.96 | 0.96 | 94 | 1006.7 |
| 20260506183104 | 52 | 360 | 5.0 | 11.0 | 0.00 | 0.95 | 0.95 | 94 | 1006.5 |
| 20260506182558 | 52 | 360 | 4.0 | 10.0 | 0.00 | 0.95 | 0.95 | 94 | 1006.5 |
| 20260506182057 | 52 | 360 | 4.0 | 9.0 | 0.00 | 0.94 | 0.94 | 94 | 1006.6 |
| 20260506181559 | 52 | 360 | 5.0 | 9.0 | 0.00 | 0.94 | 0.94 | 94 | 1006.6 |
| 20260506181057 | 52 | 360 | 4.0 | 10.0 | 0.00 | 0.94 | 0.94 | 94 | 1006.6 |
| 20260506180558 | 52 | 360 | 5.0 | 10.0 | 0.00 | 0.94 | 0.94 | 94 | 1006.6 |
| 20260506180058 | 52 | 360 | 3.0 | 10.0 | 0.00 | 0.94 | 0.94 | 94 | 1006.5 |
| 20260506175557 | 52 | 360 | 3.0 | 10.0 | 0.00 | 0.94 | 0.94 | 94 | 1006.6 |
| 20260506175058 | 52 | 360 | 4.0 | 12.0 | 0.00 | 0.94 | 0.94 | 94 | 1006.5 |
| 20260506174558 | 52 | 360 | 3.0 | 12.0 | 0.00 | 0.94 | 0.94 | 94 | 1006.5 |
| 20260506174057 | 52 | 360 | 4.0 | 10.0 | 0.00 | 0.94 | 0.94 | 94 | 1006.5 |
| 20260506173558 | 52 | 360 | 3.0 | 9.0 | 0.00 | 0.94 | 0.94 | 94 | 1006.5 |
| 20260506173056 | 52 | 360 | 3.0 | 9.0 | 0.00 | 0.94 | 0.94 | 94 | 1006.4 |
| 20260506172557 | 52 | 360 | 4.0 | 9.0 | 0.00 | 0.94 | 0.94 | 94 | 1006.4 |
| 20260506172058 | 52 | 360 | 4.0 | 9.0 | 0.00 | 0.94 | 0.94 | 94 | 1006.4 |
| 20260506171607 | 52 | 360 | 4.0 | 9.0 | 0.00 | 0.94 | 0.94 | 94 | 1006.4 |
| 20260506171058 | 52 | 360 | 4.0 | 9.0 | 0.00 | 0.94 | 0.94 | 94 | 1006.4 |
| 20260506170558 | 52 | 360 | 2.0 | 8.0 | 0.00 | 0.94 | 0.94 | 94 | 1006.4 |
| 20260506170059 | 52 | 360 | 4.0 | 8.0 | 0.00 | 0.94 | 0.94 | 94 | 1006.4 |
| 20260506165557 | 52 | 360 | 4.0 | 8.0 | 0.00 | 0.94 | 0.94 | 94 | 1006.4 |
| 20260506165058 | 52 | 360 | 2.0 | 6.0 | 0.00 | 0.94 | 0.94 | 94 | 1006.4 |
| 20260506164558 | 52 | 0 | 3.0 | 8.0 | 0.00 | 0.94 | 0.94 | 94 | 1006.4 |
| 20260506164058 | 52 | 360 | 1.0 | 8.0 | 0.00 | 0.94 | 0.94 | 94 | 1006.4 |
| 20260506163557 | 52 | 360 | 2.0 | 8.0 | 0.00 | 0.94 | 0.94 | 94 | 1006.4 |
| 20260506163107 | 52 | 360 | 2.0 | 8.0 | 0.01 | 0.94 | 0.94 | 94 | 1006.3 |
| 20260506162559 | 52 | 0 | 1.0 | 8.0 | 0.01 | 0.94 | 0.94 | 94 | 1006.2 |
| 20260506162100 | 52 | 360 | 3.0 | 8.0 | 0.02 | 0.94 | 0.94 | 94 | 1006.3 |
| 20260506161557 | 52 | 360 | 1.0 | 5.0 | 0.02 | 0.94 | 0.94 | 94 | 1006.2 |
| 20260506161057 | 52 | 360 | 2.0 | 5.0 | 0.02 | 0.94 | 0.94 | 94 | 1006.2 |
| 20260506160558 | 52 | 360 | 1.0 | 6.0 | 0.02 | 0.94 | 0.94 | 94 | 1006.3 |
| 20260506160108 | 52 | 360 | 2.0 | 10.0 | 0.02 | 0.94 | 0.94 | 94 | 1006.3 |
| 20260506155557 | 52 | 360 | 3.0 | 10.0 | 0.03 | 0.94 | 0.94 | 94 | 1006.4 |
| 20260506155057 | 52 | 360 | 3.0 | 10.0 | 0.03 | 0.94 | 0.94 | 94 | 1006.2 |
| 20260506154558 | 52 | 360 | 4.0 | 11.0 | 0.04 | 0.94 | 0.94 | 94 | 1006.2 |
| 20260506154100 | 51 | 0 | 5.0 | 16.0 | 0.03 | 0.93 | 0.93 | 94 | 1006.2 |
| 20260506153558 | 51 | 360 | 5.0 | 16.0 | 0.03 | 0.93 | 0.93 | 94 | 1006.3 |
| 20260506153059 | 51 | 360 | 4.0 | 11.0 | 0.03 | 0.92 | 0.92 | 94 | 1006.2 |
| 20260506152557 | 51 | 360 | 5.0 | 11.0 | 0.03 | 0.92 | 0.92 | 94 | 1006.3 |
| 20260506152057 | 51 | 360 | 5.0 | 11.0 | 0.02 | 0.92 | 0.92 | 94 | 1006.4 |
| 20260506151558 | 51 | 360 | 4.0 | 10.0 | 0.03 | 0.92 | 0.92 | 94 | 1006.4 |
| 20260506151057 | 51 | 360 | 4.0 | 10.0 | 0.03 | 0.92 | 0.92 | 93 | 1006.4 |
| 20260506150557 | 51 | 360 | 4.0 | 10.0 | 0.03 | 0.92 | 0.92 | 93 | 1006.5 |
| 20260506150056 | 52 | 360 | 5.0 | 10.0 | 0.03 | 0.92 | 0.92 | 94 | 1006.4 |
| 20260506145557 | 52 | 360 | 4.0 | 10.0 | 0.03 | 0.91 | 0.91 | 94 | 1006.3 |
| 20260506145057 | 51 | 360 | 5.0 | 10.0 | 0.03 | 0.90 | 0.90 | 94 | 1006.3 |
| 20260506144603 | 51 | 360 | 5.0 | 11.0 | 0.03 | 0.89 | 0.89 | 94 | 1006.3 |
| 20260506144058 | 51 | 360 | 5.0 | 11.0 | 0.03 | 0.89 | 0.89 | 94 | 1006.4 |
| 20260506143558 | 51 | 360 | 5.0 | 10.0 | 0.03 | 0.89 | 0.89 | 93 | 1006.4 |
| 20260506143057 | 51 | 360 | 6.0 | 10.0 | 0.03 | 0.89 | 0.89 | 94 | 1006.3 |
| 20260506142558 | 51 | 360 | 2.0 | 9.0 | 0.03 | 0.89 | 0.89 | 94 | 1006.4 |
| 20260506142059 | 51 | 360 | 3.0 | 9.0 | 0.03 | 0.89 | 0.89 | 94 | 1006.4 |
| 20260506141557 | 51 | 360 | 4.0 | 9.0 | 0.02 | 0.88 | 0.88 | 94 | 1006.4 |
| 20260506141057 | 51 | 360 | 3.0 | 12.0 | 0.02 | 0.88 | 0.88 | 94 | 1006.4 |
| 20260506140557 | 51 | 360 | 4.0 | 12.0 | 0.01 | 0.88 | 0.88 | 93 | 1006.4 |
| 20260506140059 | 51 | 360 | 5.0 | 12.0 | 0.00 | 0.87 | 0.87 | 93 | 1006.5 |
| 20260506135557 | 51 | 360 | 4.0 | 10.0 | 0.00 | 0.87 | 0.87 | 93 | 1006.5 |
| 20260506135057 | 51 | 360 | 3.0 | 9.0 | 0.00 | 0.86 | 0.86 | 93 | 1006.5 |
| 20260506134557 | 51 | 360 | 2.0 | 8.0 | 0.00 | 0.86 | 0.86 | 93 | 1006.5 |
| 20260506134058 | 51 | 360 | 3.0 | 8.0 | 0.00 | 0.86 | 0.86 | 93 | 1006.5 |
| 20260506133558 | 51 | 360 | 2.0 | 10.0 | 0.00 | 0.86 | 0.86 | 93 | 1006.6 |
| 20260506133056 | 51 | 360 | 3.0 | 10.0 | 0.00 | 0.86 | 0.86 | 93 | 1006.5 |
| 20260506132557 | 51 | 360 | 4.0 | 9.0 | 0.00 | 0.86 | 0.86 | 93 | 1006.4 |
| 20260506132059 | 51 | 360 | 3.0 | 8.0 | 0.00 | 0.86 | 0.86 | 93 | 1006.5 |
| 20260506131607 | 51 | 360 | 3.0 | 9.0 | 0.00 | 0.86 | 0.86 | 93 | 1006.5 |
| 20260506131100 | 51 | 360 | 3.0 | 9.0 | 0.00 | 0.86 | 0.86 | 93 | 1006.5 |
| 20260506130558 | 51 | 360 | 4.0 | 9.0 | 0.00 | 0.86 | 0.86 | 93 | 1006.4 |
| 20260506130057 | 51 | 360 | 4.0 | 9.0 | 0.00 | 0.86 | 0.86 | 93 | 1006.5 |
| 20260506125557 | 51 | 360 | 3.0 | 10.0 | 0.00 | 0.86 | 0.86 | 93 | 1006.5 |
| 20260506125058 | 51 | 360 | 4.0 | 11.0 | 0.00 | 0.86 | 0.86 | 93 | 1006.4 |
| 20260506124557 | 51 | 360 | 6.0 | 11.0 | 0.00 | 0.86 | 0.86 | 93 | 1006.4 |
| 20260506124057 | 51 | 360 | 5.0 | 11.0 | 0.00 | 0.86 | 0.86 | 94 | 1006.4 |
| 20260506123557 | 51 | 360 | 3.0 | 10.0 | 0.00 | 0.86 | 0.86 | 94 | 1006.4 |
| 20260506123055 | 51 | 360 | 5.0 | 11.0 | 0.00 | 0.86 | 0.86 | 94 | 1006.4 |
| 20260506122557 | 51 | 360 | 6.0 | 11.0 | 0.00 | 0.86 | 0.86 | 94 | 1006.3 |
| 20260506122057 | 51 | 360 | 5.0 | 11.0 | 0.00 | 0.85 | 0.85 | 94 | 1006.4 |
| 20260506121558 | 51 | 360 | 4.0 | 9.0 | 0.00 | 0.85 | 0.85 | 94 | 1006.4 |
| 20260506121057 | 51 | 360 | 4.0 | 9.0 | 0.00 | 0.85 | 0.85 | 94 | 1006.4 |
| 20260506120602 | 51 | 360 | 2.0 | 8.0 | 0.00 | 0.85 | 0.85 | 94 | 1006.4 |
| 20260506115558 | 50 | 360 | 5.0 | 12.0 | 0.00 | 0.85 | 0.85 | 93 | 1006.3 |
| 20260506115058 | 50 | 360 | 3.0 | 12.0 | 0.00 | 0.85 | 0.85 | 93 | 1006.2 |
| 20260506114559 | 50 | 360 | 4.0 | 12.0 | 0.00 | 0.85 | 0.85 | 94 | 1006.2 |
| 20260506114058 | 50 | 360 | 3.0 | 10.0 | 0.00 | 0.85 | 0.85 | 94 | 1006.2 |
| 20260506113557 | 50 | 360 | 5.0 | 12.0 | 0.00 | 0.85 | 0.85 | 94 | 1006.2 |
| 20260506113057 | 50 | 360 | 4.0 | 12.0 | 0.00 | 0.85 | 0.85 | 93 | 1006.3 |
| 20260506112558 | 50 | 360 | 5.0 | 11.0 | 0.00 | 0.85 | 0.85 | 94 | 1006.3 |
| 20260506112057 | 50 | 360 | 4.0 | 9.0 | 0.00 | 0.85 | 0.85 | 93 | 1006.3 |
| 20260506111602 | 50 | 360 | 3.0 | 12.0 | 0.00 | 0.85 | 0.85 | 93 | 1006.3 |
| 20260506111100 | 50 | 360 | 5.0 | 12.0 | 0.00 | 0.85 | 0.85 | 93 | 1006.4 |
| 20260506110557 | 50 | 360 | 7.0 | 12.0 | 0.00 | 0.85 | 0.85 | 93 | 1006.4 |
| 20260506110057 | 50 | 360 | 6.0 | 12.0 | 0.00 | 0.85 | 0.85 | 93 | 1006.3 |
| 20260506105557 | 50 | 360 | 5.0 | 11.0 | 0.00 | 0.85 | 0.85 | 93 | 1006.2 |
| 20260506105100 | 50 | 360 | 5.0 | 13.0 | 0.00 | 0.85 | 0.85 | 94 | 1006.2 |
| 20260506104604 | 50 | 360 | 6.0 | 14.0 | 0.00 | 0.85 | 0.85 | 94 | 1006.3 |
| 20260506104101 | 50 | 360 | 5.0 | 14.0 | 0.00 | 0.85 | 0.85 | 94 | 1006.2 |
| 20260506103557 | 50 | 360 | 7.0 | 12.0 | 0.00 | 0.85 | 0.85 | 94 | 1006.2 |
| 20260506103055 | 49 | 360 | 4.0 | 11.0 | 0.00 | 0.85 | 0.85 | 94 | 1006.2 |
| 20260506102601 | 49 | 360 | 4.0 | 11.0 | 0.00 | 0.85 | 0.85 | 94 | 1006.3 |
| 20260506102058 | 49 | 360 | 4.0 | 9.0 | 0.00 | 0.85 | 0.85 | 94 | 1006.2 |
| 20260506101601 | 49 | 360 | 3.0 | 8.0 | 0.00 | 0.85 | 0.85 | 94 | 1006.2 |
| 20260506101057 | 49 | 360 | 2.0 | 9.0 | 0.00 | 0.85 | 0.85 | 94 | 1006.2 |
| 20260506100557 | 49 | 360 | 4.0 | 9.0 | 0.00 | 0.85 | 0.85 | 94 | 1006.2 |
| 20260506100109 | 49 | 360 | 5.0 | 10.0 | 0.00 | 0.85 | 0.85 | 94 | 1006.2 |
| 20260506095559 | 49 | 360 | 4.0 | 10.0 | 0.00 | 0.85 | 0.85 | 94 | 1006.2 |
| 20260506095101 | 49 | 360 | 5.0 | 12.0 | 0.00 | 0.85 | 0.85 | 94 | 1006.2 |
| 20260506094556 | 49 | 360 | 5.0 | 12.0 | 0.00 | 0.85 | 0.85 | 94 | 1006.1 |
| 20260506094057 | 49 | 360 | 6.0 | 12.0 | 0.00 | 0.85 | 0.85 | 94 | 1006.2 |
| 20260506093556 | 49 | 360 | 4.0 | 12.0 | 0.00 | 0.85 | 0.85 | 94 | 1006.1 |
| 20260506093059 | 49 | 360 | 5.0 | 12.0 | 0.00 | 0.85 | 0.85 | 94 | 1006.1 |
| 20260506092557 | 49 | 360 | 5.0 | 11.0 | 0.00 | 0.85 | 0.85 | 94 | 1006.0 |
| 20260506092059 | 49 | 360 | 5.0 | 11.0 | 0.00 | 0.85 | 0.85 | 94 | 1006.0 |
| 20260506091558 | 49 | 360 | 5.0 | 10.0 | 0.00 | 0.85 | 0.85 | 94 | 1006.0 |
| 20260506091057 | 49 | 360 | 4.0 | 10.0 | 0.00 | 0.85 | 0.85 | 94 | 1005.9 |
| 20260506090558 | 48 | 360 | 5.0 | 9.0 | 0.00 | 0.85 | 0.85 | 94 | 1005.9 |
| 20260506090101 | 48 | 360 | 4.0 | 9.0 | 0.00 | 0.85 | 0.85 | 94 | 1005.9 |
| 20260506085557 | 48 | 360 | 5.0 | 9.0 | 0.00 | 0.85 | 0.85 | 94 | 1005.9 |
| 20260506085057 | 48 | 360 | 5.0 | 9.0 | 0.00 | 0.85 | 0.85 | 94 | 1005.9 |
| 20260506084603 | 48 | 360 | 3.0 | 9.0 | 0.01 | 0.85 | 0.85 | 94 | 1006.0 |
| 20260506084058 | 48 | 360 | 3.0 | 9.0 | 0.00 | 0.84 | 0.84 | 94 | 1005.9 |
| 20260506083557 | 48 | 360 | 5.0 | 9.0 | 0.00 | 0.84 | 0.84 | 94 | 1005.8 |
| 20260506083056 | 48 | 360 | 4.0 | 9.0 | 0.01 | 0.84 | 0.84 | 94 | 1005.8 |
| 20260506082557 | 48 | 360 | 2.0 | 9.0 | 0.01 | 0.84 | 0.84 | 94 | 1005.8 |
| 20260506082057 | 48 | 360 | 4.0 | 9.0 | 0.01 | 0.84 | 0.84 | 94 | 1005.8 |
| 20260506081558 | 48 | 360 | 4.0 | 12.0 | 0.02 | 0.84 | 0.84 | 94 | 1005.7 |
| 20260506081057 | 48 | 360 | 3.0 | 12.0 | 0.03 | 0.84 | 0.84 | 95 | 1005.7 |
| 20260506080557 | 48 | 360 | 6.0 | 11.0 | 0.03 | 0.84 | 0.84 | 95 | 1005.7 |
| 20260506073057 | 48 | 360 | 3.0 | 9.0 | 0.05 | 0.82 | 0.82 | 95 | 1005.7 |
| 20260506072556 | 48 | 360 | 3.0 | 9.0 | 0.06 | 0.82 | 0.82 | 94 | 1005.7 |
| 20260506072057 | 48 | 360 | 1.0 | 8.0 | 0.07 | 0.82 | 0.82 | 95 | 1005.6 |
| 20260506071600 | 48 | 360 | 3.0 | 9.0 | 0.07 | 0.81 | 0.81 | 94 | 1005.6 |
| 20260506071057 | 47 | 360 | 3.0 | 9.0 | 0.07 | 0.81 | 0.81 | 94 | 1005.6 |
| 20260506070600 | 47 | 360 | 3.0 | 9.0 | 0.07 | 0.81 | 0.81 | 94 | 1005.6 |
| 20260506062057 | 47 | 360 | 3.0 | 8.0 | 0.11 | 0.76 | 0.75 | 94 | 1005.4 |
| 20260506061559 | 47 | 360 | 3.0 | 8.0 | 0.11 | 0.75 | 0.74 | 94 | 1005.4 |
| 20260506061057 | 48 | 360 | 2.0 | 6.0 | 0.11 | 0.74 | 0.74 | 94 | 1005.3 |
| 20260506060557 | 47 | 360 | 1.0 | 5.0 | 0.11 | 0.74 | 0.73 | 94 | 1005.2 |
| 20260506051057 | 48 | 360 | 4.0 | 9.0 | 0.06 | 0.66 | 0.62 | 94 | 1005.3 |
| 20260506050557 | 48 | 360 | 3.0 | 8.0 | 0.06 | 0.66 | 0.61 | 94 | 1005.3 |
| 20260506045057 | 48 | 360 | 2.0 | 8.0 | 0.08 | 0.65 | 0.60 | 94 | 1005.4 |
| 20260506044557 | 48 | 360 | 3.0 | 8.0 | 0.08 | 0.64 | 0.59 | 94 | 1005.4 |
| 20260506044057 | 48 | 360 | 3.0 | 6.0 | 0.08 | 0.63 | 0.59 | 94 | 1005.4 |
| 20260506043557 | 49 | 360 | 1.0 | 8.0 | 0.09 | 0.63 | 0.59 | 94 | 1005.4 |
| 20260506043057 | 49 | 360 | 2.0 | 8.0 | 0.09 | 0.62 | 0.58 | 94 | 1005.4 |
| 20260506042558 | 49 | 360 | 3.0 | 8.0 | 0.09 | 0.62 | 0.57 | 94 | 1005.5 |
| 20260506042058 | 49 | 360 | 1.0 | 6.0 | 0.08 | 0.61 | 0.56 | 94 | 1005.5 |
| 20260506041604 | 49 | 360 | 3.0 | 6.0 | 0.10 | 0.61 | 0.56 | 94 | 1005.5 |
| 20260506041058 | 49 | 360 | 3.0 | 5.0 | 0.10 | 0.60 | 0.55 | 94 | 1005.5 |
| 20260506040557 | 49 | 360 | 1.0 | 9.0 | 0.10 | 0.59 | 0.55 | 94 | 1005.6 |
| 20260506040109 | 49 | 0 | 2.0 | 9.0 | 0.10 | 0.58 | 0.53 | 94 | 1005.5 |
| 20260506035557 | 49 | 360 | 3.0 | 6.0 | 0.10 | 0.57 | 0.52 | 94 | 1005.5 |
| 20260506035057 | 49 | 360 | 2.0 | 6.0 | 0.10 | 0.56 | 0.51 | 94 | 1005.6 |
| 20260506034559 | 49 | 360 | 2.0 | 8.0 | 0.11 | 0.55 | 0.51 | 94 | 1005.6 |
| 20260506034056 | 49 | 360 | 2.0 | 8.0 | 0.11 | 0.55 | 0.50 | 94 | 1005.6 |
| 20260506033558 | 49 | 360 | 2.0 | 4.0 | 0.11 | 0.54 | 0.49 | 94 | 1005.7 |
| 20260506033057 | 49 | 360 | 1.0 | 4.0 | 0.13 | 0.53 | 0.48 | 94 | 1005.6 |
| 20260506032557 | 49 | 360 | 2.0 | 6.0 | 0.14 | 0.52 | 0.48 | 94 | 1005.6 |
| 20260506032058 | 49 | 360 | 2.0 | 6.0 | 0.16 | 0.51 | 0.47 | 94 | 1005.7 |
| 20260506031601 | 49 | 360 | 2.0 | 8.0 | 0.16 | 0.51 | 0.46 | 94 | 1005.7 |
| 20260506031057 | 49 | 360 | 3.0 | 8.0 | 0.18 | 0.50 | 0.45 | 94 | 1005.7 |
| 20260506030557 | 49 | 360 | 3.0 | 9.0 | 0.18 | 0.49 | 0.44 | 94 | 1005.7 |
| 20260506030107 | 49 | 360 | 2.0 | 9.0 | 0.17 | 0.48 | 0.43 | 94 | 1005.8 |
| 20260506025557 | 50 | 360 | 2.0 | 8.0 | 0.17 | 0.48 | 0.42 | 94 | 1005.8 |
| 20260506025056 | 50 | 360 | 4.0 | 9.0 | 0.17 | 0.47 | 0.41 | 94 | 1005.9 |
| 20260506024558 | 50 | 360 | 4.0 | 9.0 | 0.16 | 0.45 | 0.40 | 94 | 1006.0 |
| 20260506024056 | 50 | 360 | 2.0 | 6.0 | 0.15 | 0.44 | 0.38 | 94 | 1006.0 |
| 20260506023557 | 50 | 360 | 2.0 | 6.0 | 0.16 | 0.43 | 0.37 | 94 | 1006.0 |
| 20260506023054 | 50 | 360 | 2.0 | 10.0 | 0.14 | 0.40 | 0.35 | 94 | 1006.0 |
| 20260506022557 | 50 | 0 | 5.0 | 10.0 | 0.11 | 0.37 | 0.32 | 94 | 1006.1 |
| 20260506022056 | 50 | 360 | 3.0 | 10.0 | 0.11 | 0.36 | 0.30 | 94 | 1006.1 |
| 20260506021600 | 50 | 360 | 2.0 | 9.0 | 0.10 | 0.34 | 0.29 | 94 | 1006.2 |
| 20260506021056 | 50 | 360 | 3.0 | 9.0 | 0.09 | 0.33 | 0.27 | 94 | 1006.1 |
| 20260506020557 | 50 | 360 | 3.0 | 9.0 | 0.10 | 0.32 | 0.26 | 94 | 1006.1 |
| 20260506020054 | 50 | 360 | 3.0 | 9.0 | 0.10 | 0.31 | 0.25 | 94 | 1006.1 |
| 20260506015557 | 50 | 360 | 3.0 | 9.0 | 0.10 | 0.30 | 0.25 | 94 | 1006.2 |
| 20260506015057 | 50 | 360 | 4.0 | 10.0 | 0.10 | 0.29 | 0.24 | 94 | 1006.1 |
| 20260506014603 | 50 | 360 | 4.0 | 10.0 | 0.11 | 0.29 | 0.23 | 93 | 1006.2 |
| 20260506014056 | 50 | 360 | 2.0 | 9.0 | 0.11 | 0.28 | 0.22 | 93 | 1006.2 |
| 20260506013556 | 50 | 360 | 2.0 | 9.0 | 0.10 | 0.26 | 0.21 | 93 | 1006.2 |
| 20260506013055 | 50 | 360 | 2.0 | 9.0 | 0.10 | 0.25 | 0.20 | 93 | 1006.2 |
| 20260506012556 | 50 | 360 | 4.0 | 9.0 | 0.10 | 0.25 | 0.20 | 94 | 1006.3 |
| 20260506012059 | 51 | 360 | 2.0 | 9.0 | 0.10 | 0.25 | 0.19 | 94 | 1006.3 |
| 20260506011557 | 51 | 360 | 4.0 | 8.0 | 0.10 | 0.24 | 0.18 | 94 | 1006.3 |
| 20260506011056 | 51 | 360 | 4.0 | 9.0 | 0.09 | 0.23 | 0.18 | 93 | 1006.3 |
| 20260506010557 | 51 | 360 | 2.0 | 9.0 | 0.08 | 0.22 | 0.16 | 93 | 1006.3 |
| 20260506010105 | 51 | 360 | 3.0 | 9.0 | 0.07 | 0.21 | 0.15 | 93 | 1006.4 |
| 20260506005558 | 51 | 360 | 4.0 | 9.0 | 0.07 | 0.20 | 0.14 | 93 | 1006.4 |
| 20260506005056 | 51 | 360 | 4.0 | 11.0 | 0.07 | 0.19 | 0.14 | 93 | 1006.4 |
| 20260506004554 | 51 | 360 | 4.0 | 11.0 | 0.07 | 0.18 | 0.12 | 93 | 1006.4 |
| 20260506004056 | 51 | 360 | 2.0 | 8.0 | 0.06 | 0.17 | 0.11 | 93 | 1006.5 |
| 20260506003556 | 51 | 360 | 2.0 | 9.0 | 0.07 | 0.16 | 0.11 | 93 | 1006.5 |
| 20260506003054 | 51 | 360 | 2.0 | 12.0 | 0.07 | 0.15 | 0.10 | 93 | 1006.5 |
| 20260506002556 | 51 | 360 | 3.0 | 12.0 | 0.07 | 0.15 | 0.10 | 93 | 1006.6 |
| 20260506002057 | 51 | 360 | 5.0 | 9.0 | 0.07 | 0.14 | 0.09 | 93 | 1006.6 |
| 20260506001600 | 51 | 360 | 3.0 | 8.0 | 0.07 | 0.14 | 0.08 | 93 | 1006.6 |
| 20260506001057 | 51 | 360 | 3.0 | 8.0 | 0.07 | 0.14 | 0.08 | 93 | 1006.7 |
| 20260506000557 | 51 | 360 | 3.0 | 10.0 | 0.07 | 0.13 | 0.07 | 93 | 1006.7 |
| 20260506000100 | 51 | 360 | 3.0 | 12.0 | 0.07 | 0.12 | 0.07 | 93 | 1006.8 |
| 20260505235557 | 51 | 360 | 4.0 | 13.0 | 0.07 | 0.12 | 0.07 | 93 | 1006.8 |
| 20260505235057 | 51 | 360 | 5.0 | 13.0 | 0.06 | 0.11 | 0.06 | 93 | 1006.9 |
| 20260505234601 | 51 | 360 | 5.0 | 13.0 | 0.05 | 0.11 | 0.05 | 93 | 1006.9 |
| 20260505234057 | 51 | 360 | 3.0 | 9.0 | 0.05 | 0.11 | 0.05 | 93 | 1007.0 |
| 20260505233556 | 51 | 360 | 3.0 | 11.0 | 0.03 | 0.09 | 0.03 | 93 | 1007.0 |
| 20260505233114 | 51 | 360 | 5.0 | 11.0 | 0.03 | 0.08 | 0.03 | 92 | 1007.0 |
| 20260505232556 | 51 | 360 | 4.0 | 11.0 | 0.02 | 0.07 | 0.02 | 92 | 1007.2 |
| 20260505232056 | 51 | 360 | 5.0 | 11.0 | 0.01 | 0.07 | 0.01 | 92 | 1007.2 |
| 20260505231556 | 51 | 360 | 3.0 | 13.0 | 0.00 | 0.06 | 0.00 | 92 | 1007.2 |
| 20260505231056 | 51 | 360 | 4.0 | 13.0 | 0.00 | 0.06 | 0.00 | 92 | 1007.2 |
| 20260505230557 | 51 | 360 | 4.0 | 12.0 | 0.00 | 0.06 | 0.00 | 92 | 1007.3 |
| 20260505230104 | 51 | 360 | 4.0 | 12.0 | 0.00 | 0.05 | 0.00 | 92 | 1007.3 |
| 20260505225557 | 52 | 360 | 4.0 | 11.0 | 0.00 | 0.06 | 0.00 | 92 | 1007.3 |
| 20260505225057 | 52 | 360 | 2.0 | 10.0 | 0.00 | 0.06 | 0.00 | 92 | 1007.3 |
| 20260505224559 | 52 | 360 | 4.0 | 9.0 | 0.00 | 0.06 | 0.00 | 92 | 1007.3 |
| 20260505224101 | 52 | 360 | 3.0 | 8.0 | 0.00 | 0.06 | 0.00 | 92 | 1007.4 |
| 20260505223556 | 52 | 360 | 2.0 | 8.0 | 0.00 | 0.06 | 0.00 | 91 | 1007.3 |
| 20260505223057 | 52 | 360 | 2.0 | 9.0 | 0.00 | 0.06 | 0.00 | 91 | 1007.4 |
| 20260505222556 | 52 | 360 | 2.0 | 9.0 | 0.00 | 0.06 | 0.00 | 91 | 1007.4 |
| 20260505222056 | 52 | 360 | 3.0 | 9.0 | 0.00 | 0.06 | 0.00 | 91 | 1007.4 |
| 20260505221604 | 52 | 32 | 3.0 | 9.0 | 0.00 | 0.06 | 0.00 | 91 | 1007.4 |
| 20260505221100 | 52 | 55 | 3.0 | 9.0 | 0.00 | 0.06 | 0.00 | 91 | 1007.5 |
| 20260505220557 | 52 | 65 | 4.0 | 11.0 | 0.00 | 0.06 | 0.00 | 91 | 1007.5 |
| 20260505220057 | 52 | 60 | 6.0 | 11.0 | 0.00 | 0.06 | 0.00 | 91 | 1007.5 |
| 20260505215557 | 52 | 81 | 3.0 | 11.0 | 0.00 | 0.07 | 0.06 | 91 | 1007.5 |
| 20260505215058 | 52 | 54 | 5.0 | 11.0 | 0.00 | 0.07 | 0.06 | 91 | 1007.6 |
| 20260505214605 | 52 | 67 | 6.0 | 11.0 | 0.00 | 0.07 | 0.06 | 90 | 1007.7 |
| 20260505214057 | 52 | 40 | 3.0 | 11.0 | 0.00 | 0.07 | 0.06 | 90 | 1007.8 |
| 20260505213557 | 52 | 54 | 4.0 | 10.0 | 0.00 | 0.07 | 0.06 | 90 | 1007.7 |
| 20260505213104 | 52 | 15 | 4.0 | 10.0 | 0.00 | 0.07 | 0.06 | 90 | 1007.7 |
| 20260505212557 | 52 | 53 | 3.0 | 10.0 | 0.00 | 0.07 | 0.06 | 90 | 1007.8 |
| 20260505212056 | 52 | 57 | 3.0 | 12.0 | 0.00 | 0.07 | 0.06 | 91 | 1007.8 |
| 20260505211559 | 52 | 31 | 5.0 | 13.0 | 0.00 | 0.07 | 0.06 | 91 | 1007.8 |
| 20260505211057 | 52 | 21 | 5.0 | 13.0 | 0.00 | 0.07 | 0.06 | 90 | 1007.8 |
| 20260505210558 | 52 | 44 | 4.0 | 12.0 | 0.00 | 0.07 | 0.06 | 90 | 1007.8 |
| 20260505205556 | 52 | 21 | 5.0 | 11.0 | 0.00 | 0.11 | 0.06 | 90 | 1007.9 |
| 20260505205059 | 52 | 63 | 3.0 | 11.0 | 0.00 | 0.11 | 0.06 | 90 | 1007.9 |
| 20260505204558 | 52 | 44 | 3.0 | 12.0 | 0.00 | 0.11 | 0.06 | 90 | 1007.9 |
| 20260505204056 | 52 | 78 | 6.0 | 12.0 | 0.00 | 0.11 | 0.06 | 90 | 1008.0 |
| 20260505203557 | 52 | 42 | 4.0 | 11.0 | 0.00 | 0.11 | 0.06 | 90 | 1007.9 |
| 20260505203058 | 52 | 66 | 5.0 | 13.0 | 0.00 | 0.11 | 0.06 | 90 | 1008.0 |
| 20260505202557 | 52 | 49 | 4.0 | 13.0 | 0.00 | 0.11 | 0.06 | 90 | 1007.9 |
| 20260505202057 | 52 | 42 | 5.0 | 10.0 | 0.00 | 0.11 | 0.06 | 90 | 1007.9 |
| 20260505201555 | 52 | 27 | 3.0 | 12.0 | 0.00 | 0.11 | 0.06 | 90 | 1007.8 |
| 20260505201057 | 53 | 28 | 6.0 | 12.0 | 0.00 | 0.11 | 0.06 | 90 | 1007.9 |
| 20260505200558 | 53 | 56 | 3.0 | 11.0 | 0.00 | 0.11 | 0.06 | 90 | 1007.8 |
| 20260505200058 | 53 | 28 | 6.0 | 11.0 | 0.00 | 0.11 | 0.06 | 90 | 1007.9 |
| 20260505195556 | 53 | 16 | 5.0 | 11.0 | 0.00 | 0.25 | 0.06 | 90 | 1007.9 |
| 20260505195059 | 53 | 13 | 6.0 | 12.0 | 0.00 | 0.25 | 0.06 | 90 | 1007.9 |
| 20260505194600 | 53 | 34 | 5.0 | 12.0 | 0.00 | 0.25 | 0.06 | 90 | 1007.9 |
| 20260505194056 | 53 | 5 | 6.0 | 12.0 | 0.00 | 0.25 | 0.06 | 90 | 1007.9 |
| 20260505193557 | 53 | 339 | 3.0 | 12.0 | 0.00 | 0.25 | 0.06 | 90 | 1007.9 |
| 20260505193119 | 53 | 51 | 4.0 | 11.0 | 0.00 | 0.25 | 0.06 | 89 | 1007.9 |
| 20260505192557 | 53 | 36 | 4.0 | 10.0 | 0.00 | 0.25 | 0.06 | 89 | 1008.0 |
| 20260505192057 | 53 | 14 | 4.0 | 12.0 | 0.00 | 0.25 | 0.06 | 89 | 1007.9 |
| 20260505191605 | 53 | 44 | 5.0 | 12.0 | 0.00 | 0.25 | 0.06 | 89 | 1007.9 |
| 20260505191056 | 53 | 23 | 7.0 | 12.0 | 0.00 | 0.25 | 0.06 | 89 | 1007.9 |
| 20260505190556 | 54 | 38 | 3.0 | 9.0 | 0.00 | 0.25 | 0.06 | 89 | 1007.9 |
| 20260505190058 | 54 | 41 | 3.0 | 9.0 | 0.00 | 0.25 | 0.06 | 89 | 1007.9 |
| 20260505185557 | 54 | 31 | 3.0 | 12.0 | 0.00 | 0.33 | 0.06 | 89 | 1007.8 |